Time,TemperatureF,DewpointF,PressureIn,WindDirection,WindDirectionDegrees,WindSpeedMPH,WindSpeedGustMPH,Humidity,HourlyPrecipIn,Conditions,Clouds,dailyrainin,SoftwareType,DateUTC
2013-09-17 00:00:00,72.8,70.7,29.82,WSW,246,0.0,0.0,93,0.00,,,0.09,Wunderground v.1.13,2013-09-17 05:00:00,
2013-09-17 00:05:00,72.7,70.6,29.83,WSW,246,0.0,0.0,93,0.00,,,0.00,Wunderground v.1.13,2013-09-17 05:05:00,
2013-09-17 00:15:00,72.7,70.6,29.83,WSW,246,0.0,0.0,93,0.00,,,0.00,Wunderground v.1.13,2013-09-17 05:15:00,
2013-09-17 00:20:00,72.6,70.5,29.83,WSW,246,0.0,0.0,93,0.00,,,0.00,Wunderground v.1.13,2013-09-17 05:20:00,
2013-09-17 00:25:00,72.6,70.5,29.83,WSW,246,0.0,0.0,93,0.00,,,0.00,Wunderground v.1.13,2013-09-17 05:25:00,
2013-09-17 00:30:00,72.5,70.4,29.83,WSW,246,0.0,0.0,93,0.00,,,0.00,Wunderground v.1.13,2013-09-17 05:30:00,
2013-09-17 00:35:00,72.4,70.3,29.83,WSW,246,0.0,0.0,93,0.00,,,0.00,Wunderground v.1.13,2013-09-17 05:35:00,
2013-09-17 00:44:00,72.3,70.2,29.82,WSW,246,0.0,0.0,93,0.00,,,0.00,Wunderground v.1.13,2013-09-17 05:44:00,
2013-09-17 00:50:00,72.2,70.4,29.82,WSW,246,0.0,0.0,94,0.00,,,0.00,Wunderground v.1.13,2013-09-17 05:50:00,
2013-09-17 00:55:00,72.2,70.4,29.82,WSW,246,0.0,0.0,94,0.00,,,0.00,Wunderground v.1.13,2013-09-17 05:55:00,
2013-09-17 01:00:00,72.1,70.3,29.82,WSW,246,0.0,0.0,94,0.00,,,0.00,Wunderground v.1.13,2013-09-17 06:00:00,
2013-09-17 01:05:00,72.1,70.3,29.82,WSW,246,0.0,0.0,94,0.00,,,0.00,Wunderground v.1.13,2013-09-17 06:05:00,
2013-09-17 01:10:00,72.1,70.3,29.82,WSW,246,0.0,0.0,94,0.00,,,0.00,Wunderground v.1.13,2013-09-17 06:10:00,
2013-09-17 01:15:00,72.0,69.9,29.82,WSW,246,0.0,0.0,93,0.00,,,0.00,Wunderground v.1.13,2013-09-17 06:15:00,
2013-09-17 01:24:00,71.9,70.1,29.82,WSW,246,0.0,0.0,94,0.00,,,0.00,Wunderground v.1.13,2013-09-17 06:24:00,
2013-09-17 01:30:00,71.9,70.1,29.82,WSW,246,0.0,0.0,94,0.00,,,0.00,Wunderground v.1.13,2013-09-17 06:30:00,
2013-09-17 01:35:00,71.8,70.0,29.82,WSW,246,0.0,0.0,94,0.00,,,0.00,Wunderground v.1.13,2013-09-17 06:35:00,
2013-09-17 01:40:00,71.7,69.9,29.82,WSW,246,0.0,0.0,94,0.00,,,0.00,Wunderground v.1.13,2013-09-17 06:40:00,
2013-09-17 01:45:00,71.7,69.9,29.82,WSW,246,0.0,0.0,94,0.00,,,0.00,Wunderground v.1.13,2013-09-17 06:45:00,
2013-09-17 01:54:00,71.6,69.8,29.82,WSW,246,0.0,0.0,94,0.00,,,0.00,Wunderground v.1.13,2013-09-17 06:54:00,
2013-09-17 02:00:00,71.5,69.7,29.82,WSW,246,0.0,0.0,94,0.00,,,0.00,Wunderground v.1.13,2013-09-17 07:00:00,
2013-09-17 02:05:00,71.4,69.6,29.82,WSW,246,0.0,0.0,94,0.00,,,0.00,Wunderground v.1.13,2013-09-17 07:05:00,
2013-09-17 02:15:00,71.2,69.4,29.82,WSW,246,0.0,0.0,94,0.00,,,0.00,Wunderground v.1.13,2013-09-17 07:15:00,
2013-09-17 02:20:00,71.2,69.4,29.82,WSW,246,0.0,0.0,94,0.00,,,0.00,Wunderground v.1.13,2013-09-17 07:20:00,
2013-09-17 02:25:00,71.1,69.3,29.82,WSW,246,0.0,0.0,94,0.00,,,0.00,Wunderground v.1.13,2013-09-17 07:25:00,
2013-09-17 02:30:00,71.1,69.3,29.81,WSW,246,0.0,0.0,94,0.00,,,0.00,Wunderground v.1.13,2013-09-17 07:30:00,
2013-09-17 02:39:00,71.0,69.2,29.81,WSW,246,0.0,0.0,94,0.00,,,0.00,Wunderground v.1.13,2013-09-17 07:39:00,
2013-09-17 02:44:00,71.0,69.2,29.81,WSW,246,0.0,0.0,94,0.00,,,0.00,Wunderground v.1.13,2013-09-17 07:44:00,
2013-09-17 02:50:00,70.9,69.1,29.81,WSW,246,0.0,0.0,94,0.00,,,0.00,Wunderground v.1.13,2013-09-17 07:50:00,
2013-09-17 02:55:00,70.9,69.1,29.81,WSW,246,0.0,0.0,94,0.00,,,0.00,Wunderground v.1.13,2013-09-17 07:55:00,
2013-09-17 03:00:00,70.9,69.1,29.81,WSW,246,0.0,0.0,94,0.00,,,0.00,Wunderground v.1.13,2013-09-17 08:00:00,
2013-09-17 03:05:00,70.9,69.1,29.80,WSW,246,0.0,0.0,94,0.00,,,0.00,Wunderground v.1.13,2013-09-17 08:05:00,
2013-09-17 03:10:00,70.8,69.0,29.80,WSW,246,0.0,0.0,94,0.00,,,0.00,Wunderground v.1.13,2013-09-17 08:10:00,
2013-09-17 03:20:00,70.8,69.0,29.80,WSW,246,0.0,0.0,94,0.00,,,0.00,Wunderground v.1.13,2013-09-17 08:20:00,
2013-09-17 03:30:00,70.8,69.3,29.80,WSW,246,0.0,0.0,95,0.00,,,0.00,Wunderground v.1.13,2013-09-17 08:30:00,
2013-09-17 03:39:00,70.8,69.3,29.79,WSW,246,0.0,0.0,95,0.00,,,0.00,Wunderground v.1.13,2013-09-17 08:39:00,
2013-09-17 03:45:00,70.8,69.3,29.79,WSW,246,0.0,0.0,95,0.00,,,0.00,Wunderground v.1.13,2013-09-17 08:45:00,
2013-09-17 03:50:00,70.8,69.3,29.79,WSW,246,0.0,0.0,95,0.00,,,0.00,Wunderground v.1.13,2013-09-17 08:50:00,
2013-09-17 03:55:00,70.8,69.3,29.79,WSW,246,0.0,0.0,95,0.00,,,0.00,Wunderground v.1.13,2013-09-17 08:55:00,
2013-09-17 04:00:00,70.9,69.4,29.79,WSW,246,0.0,0.0,95,0.00,,,0.00,Wunderground v.1.13,2013-09-17 09:00:00,
2013-09-17 04:05:00,70.9,69.4,29.79,WSW,246,0.0,0.0,95,0.00,,,0.00,Wunderground v.1.13,2013-09-17 09:05:00,
2013-09-17 04:14:00,70.9,69.4,29.79,WSW,246,0.0,0.0,95,0.00,,,0.00,Wunderground v.1.13,2013-09-17 09:14:00,
2013-09-17 04:20:00,70.9,69.4,29.79,WSW,246,0.0,0.0,95,0.00,,,0.00,Wunderground v.1.13,2013-09-17 09:20:00,
2013-09-17 04:25:00,70.8,69.3,29.79,WSW,246,0.0,0.0,95,0.00,,,0.00,Wunderground v.1.13,2013-09-17 09:25:00,
2013-09-17 04:30:00,70.8,69.3,29.79,WSW,246,0.0,0.0,95,0.00,,,0.00,Wunderground v.1.13,2013-09-17 09:30:00,
2013-09-17 04:35:00,70.8,69.3,29.79,WSW,246,0.0,0.0,95,0.00,,,0.00,Wunderground v.1.13,2013-09-17 09:35:00,
2013-09-17 04:45:00,70.7,69.2,29.78,WSW,246,0.0,0.0,95,0.00,,,0.00,Wunderground v.1.13,2013-09-17 09:45:00,
2013-09-17 04:50:00,70.6,69.1,29.78,WSW,246,0.0,0.0,95,0.00,,,0.00,Wunderground v.1.13,2013-09-17 09:50:00,
2013-09-17 04:55:00,70.5,69.0,29.78,WSW,246,0.0,0.0,95,0.00,,,0.00,Wunderground v.1.13,2013-09-17 09:55:00,
2013-09-17 05:00:00,70.4,68.9,29.79,WSW,246,0.0,0.0,95,0.00,,,0.00,Wunderground v.1.13,2013-09-17 10:00:00,
2013-09-17 05:09:00,70.3,68.8,29.79,WSW,246,0.0,0.0,95,0.00,,,0.00,Wunderground v.1.13,2013-09-17 10:09:00,
2013-09-17 05:14:00,70.3,68.8,29.79,WSW,246,0.0,0.0,95,0.00,,,0.00,Wunderground v.1.13,2013-09-17 10:14:00,
2013-09-17 05:19:00,70.2,68.7,29.79,WSW,246,0.0,0.0,95,0.00,,,0.01,Wunderground v.1.13,2013-09-17 10:19:00,
2013-09-17 05:25:00,70.2,68.7,29.79,WSW,246,0.0,0.0,95,0.00,,,0.01,Wunderground v.1.13,2013-09-17 10:25:00,
2013-09-17 05:34:00,70.1,68.6,29.79,WSW,246,0.0,0.0,95,0.00,,,0.01,Wunderground v.1.13,2013-09-17 10:34:00,
2013-09-17 05:39:00,70.1,68.6,29.79,WSW,246,0.0,0.0,95,0.00,,,0.01,Wunderground v.1.13,2013-09-17 10:39:00,
2013-09-17 05:45:00,70.2,68.7,29.79,WSW,246,0.0,0.0,95,0.00,,,0.01,Wunderground v.1.13,2013-09-17 10:45:00,
2013-09-17 05:55:00,70.9,69.7,29.79,WSW,246,0.0,0.0,96,0.00,,,0.01,Wunderground v.1.13,2013-09-17 10:55:00,
2013-09-17 06:00:00,71.4,70.2,29.79,WSW,246,0.0,0.0,96,0.00,,,0.01,Wunderground v.1.13,2013-09-17 11:00:00,
2013-09-17 06:05:00,71.7,70.5,29.79,WSW,246,0.0,0.0,96,0.00,,,0.01,Wunderground v.1.13,2013-09-17 11:05:00,
2013-09-17 06:14:00,71.9,70.4,29.79,WSW,246,0.0,0.0,95,0.00,,,0.01,Wunderground v.1.13,2013-09-17 11:14:00,
2013-09-17 06:19:00,71.9,70.4,29.79,WSW,246,0.0,0.0,95,0.00,,,0.01,Wunderground v.1.13,2013-09-17 11:19:00,
2013-09-17 06:24:00,71.9,70.4,29.79,WSW,246,0.0,0.0,95,0.00,,,0.01,Wunderground v.1.13,2013-09-17 11:24:00,
2013-09-17 06:30:00,71.9,70.7,29.80,WSW,246,0.0,0.0,96,0.00,,,0.01,Wunderground v.1.13,2013-09-17 11:30:00,
2013-09-17 06:35:00,71.9,70.7,29.80,WSW,246,0.0,0.0,96,0.00,,,0.01,Wunderground v.1.13,2013-09-17 11:35:00,
2013-09-17 06:45:00,71.8,70.6,29.80,WSW,246,0.0,0.0,96,0.00,,,0.01,Wunderground v.1.13,2013-09-17 11:45:00,
2013-09-17 06:50:00,71.8,70.6,29.80,WSW,246,0.0,0.0,96,0.00,,,0.01,Wunderground v.1.13,2013-09-17 11:50:00,
2013-09-17 06:55:00,71.8,70.6,29.80,WSW,246,0.0,0.0,96,0.00,,,0.01,Wunderground v.1.13,2013-09-17 11:55:00,
2013-09-17 07:00:00,71.9,70.7,29.80,WSW,246,0.0,0.0,96,0.00,,,0.01,Wunderground v.1.13,2013-09-17 12:00:00,
2013-09-17 07:05:00,72.0,70.8,29.80,WSW,246,0.0,0.0,96,0.00,,,0.01,Wunderground v.1.13,2013-09-17 12:05:00,
2013-09-17 07:14:00,72.1,70.9,29.80,WSW,246,0.0,0.0,96,0.00,,,0.01,Wunderground v.1.13,2013-09-17 12:14:00,
2013-09-17 07:24:00,72.5,71.3,29.81,WSW,246,0.0,0.0,96,0.00,,,0.01,Wunderground v.1.13,2013-09-17 12:24:00,
2013-09-17 07:30:00,72.6,71.4,29.81,WSW,246,0.0,0.0,96,0.00,,,0.01,Wunderground v.1.13,2013-09-17 12:30:00,
2013-09-17 07:35:00,72.7,71.5,29.81,WSW,246,0.0,0.0,96,0.00,,,0.01,Wunderground v.1.13,2013-09-17 12:35:00,
2013-09-17 07:40:00,72.9,71.7,29.81,WSW,246,0.0,0.0,96,0.00,,,0.01,Wunderground v.1.13,2013-09-17 12:40:00,
2013-09-17 07:45:00,73.0,71.8,29.81,WSW,246,0.0,0.0,96,0.00,,,0.01,Wunderground v.1.13,2013-09-17 12:45:00,
2013-09-17 07:50:00,73.1,71.9,29.81,WSW,246,0.0,0.0,96,0.00,,,0.01,Wunderground v.1.13,2013-09-17 12:50:00,
2013-09-17 07:59:00,73.5,72.3,29.82,WSW,246,0.0,0.0,96,0.00,,,0.01,Wunderground v.1.13,2013-09-17 12:59:00,
2013-09-17 08:05:00,73.6,72.4,29.82,WSW,246,0.0,0.0,96,0.00,,,0.01,Wunderground v.1.13,2013-09-17 13:05:00,
2013-09-17 08:15:00,73.9,72.7,29.82,WSW,246,0.0,1.0,96,0.00,,,0.01,Wunderground v.1.13,2013-09-17 13:15:00,
2013-09-17 08:20:00,74.0,72.8,29.82,WSW,246,0.0,1.0,96,0.00,,,0.01,Wunderground v.1.13,2013-09-17 13:20:00,
2013-09-17 08:25:00,74.1,72.9,29.82,WSW,246,0.0,0.0,96,0.00,,,0.01,Wunderground v.1.13,2013-09-17 13:25:00,
2013-09-17 08:30:00,74.3,73.1,29.82,WSW,246,0.0,0.0,96,0.00,,,0.01,Wunderground v.1.13,2013-09-17 13:30:00,
2013-09-17 08:35:00,74.4,73.5,29.82,WSW,246,0.0,0.0,97,0.00,,,0.01,Wunderground v.1.13,2013-09-17 13:35:00,
2013-09-17 08:40:00,74.6,73.7,29.82,WSW,246,0.0,0.0,97,0.00,,,0.01,Wunderground v.1.13,2013-09-17 13:40:00,
2013-09-17 08:49:00,75.2,74.3,29.82,WSW,250,1.0,1.0,97,0.00,,,0.01,Wunderground v.1.13,2013-09-17 13:49:00,
2013-09-17 08:55:00,75.3,74.4,29.83,WSW,254,0.0,1.0,97,0.00,,,0.01,Wunderground v.1.13,2013-09-17 13:55:00,
2013-09-17 09:00:00,75.5,74.6,29.83,West,267,1.0,1.0,97,0.00,,,0.01,Wunderground v.1.13,2013-09-17 14:00:00,
2013-09-17 09:05:00,75.6,74.7,29.83,WNW,288,1.0,1.0,97,0.00,,,0.01,Wunderground v.1.13,2013-09-17 14:05:00,
2013-09-17 09:10:00,75.7,74.8,29.83,WNW,288,0.0,0.0,97,0.00,,,0.01,Wunderground v.1.13,2013-09-17 14:10:00,
2013-09-17 09:15:00,75.9,75.0,29.83,WNW,288,0.0,0.0,97,0.00,,,0.01,Wunderground v.1.13,2013-09-17 14:15:00,
2013-09-17 09:20:00,76.1,75.2,29.83,WNW,290,0.0,0.0,97,0.00,,,0.01,Wunderground v.1.13,2013-09-17 14:20:00,
2013-09-17 09:25:00,76.1,74.9,29.83,WNW,302,1.0,1.0,96,0.00,,,0.01,Wunderground v.1.13,2013-09-17 14:25:00,
2013-09-17 09:30:00,76.3,75.4,29.83,NW,305,1.0,1.0,97,0.00,,,0.01,Wunderground v.1.13,2013-09-17 14:30:00,
2013-09-17 09:39:00,76.7,75.5,29.83,North,5,1.0,2.0,96,0.00,,,0.01,Wunderground v.1.13,2013-09-17 14:39:00,
2013-09-17 09:45:00,76.7,75.8,29.83,North,5,1.0,2.0,97,0.00,,,0.01,Wunderground v.1.13,2013-09-17 14:45:00,
2013-09-17 09:50:00,76.7,75.5,29.83,NNE,28,1.0,1.0,96,0.00,,,0.01,Wunderground v.1.13,2013-09-17 14:50:00,
2013-09-17 09:55:00,76.9,75.7,29.83,NNE,32,1.0,1.0,96,0.00,,,0.01,Wunderground v.1.13,2013-09-17 14:55:00,
2013-09-17 10:00:00,77.1,75.9,29.83,NE,38,1.0,1.0,96,0.00,,,0.01,Wunderground v.1.13,2013-09-17 15:00:00,
2013-09-17 10:05:00,77.3,76.1,29.83,NE,39,1.0,1.0,96,0.00,,,0.01,Wunderground v.1.13,2013-09-17 15:05:00,
2013-09-17 10:15:00,77.7,76.5,29.84,NE,47,1.0,1.0,96,0.00,,,0.01,Wunderground v.1.13,2013-09-17 15:15:00,
2013-09-17 10:20:00,77.7,76.2,29.84,NE,49,1.0,1.0,95,0.00,,,0.01,Wunderground v.1.13,2013-09-17 15:20:00,
2013-09-17 10:25:00,77.8,76.3,29.84,NE,53,1.0,1.0,95,0.00,,,0.01,Wunderground v.1.13,2013-09-17 15:25:00,
2013-09-17 10:34:00,78.2,76.3,29.84,ENE,57,1.0,4.0,94,0.00,,,0.01,Wunderground v.1.13,2013-09-17 15:34:00,
2013-09-17 10:39:00,78.3,76.1,29.84,ENE,59,2.0,2.0,93,0.00,,,0.01,Wunderground v.1.13,2013-09-17 15:39:00,
2013-09-17 10:50:00,78.6,75.8,29.84,ENE,58,1.0,3.0,91,0.00,,,0.01,Wunderground v.1.13,2013-09-17 15:50:00,
2013-09-17 10:59:00,79.4,75.9,29.84,ENE,61,1.0,1.0,89,0.00,,,0.01,Wunderground v.1.13,2013-09-17 15:59:00,
2013-09-17 11:04:00,79.8,76.3,29.84,ENE,61,1.0,1.0,89,0.00,,,0.01,Wunderground v.1.13,2013-09-17 16:04:00,
2013-09-17 11:10:00,80.5,76.3,29.84,NE,56,2.0,3.0,87,0.00,,,0.01,Wunderground v.1.13,2013-09-17 16:10:00,
2013-09-17 11:15:00,81.3,76.4,29.83,ENE,65,3.0,3.0,85,0.00,,,0.01,Wunderground v.1.13,2013-09-17 16:15:00,
2013-09-17 11:20:00,82.3,75.9,29.83,ENE,59,3.0,3.0,81,0.00,,,0.01,Wunderground v.1.13,2013-09-17 16:20:00,
2013-09-17 11:25:00,82.9,76.1,29.83,ENE,61,2.0,3.0,80,0.00,,,0.01,Wunderground v.1.13,2013-09-17 16:25:00,
2013-09-17 11:34:00,83.4,75.4,29.83,ENE,59,1.0,2.0,77,0.00,,,0.01,Wunderground v.1.13,2013-09-17 16:34:00,
2013-09-17 11:40:00,83.2,75.6,29.83,ENE,60,1.0,1.0,78,0.00,,,0.01,Wunderground v.1.13,2013-09-17 16:40:00,
2013-09-17 11:45:00,83.2,75.2,29.83,ENE,60,0.0,0.0,77,0.00,,,0.01,Wunderground v.1.13,2013-09-17 16:45:00,
2013-09-17 11:50:00,83.5,75.5,29.83,ENE,60,0.0,0.0,77,0.00,,,0.01,Wunderground v.1.13,2013-09-17 16:50:00,
2013-09-17 11:55:00,83.9,75.9,29.83,NE,55,1.0,1.0,77,0.00,,,0.01,Wunderground v.1.13,2013-09-17 16:55:00,
2013-09-17 12:00:00,84.9,76.1,29.83,ENE,76,1.0,1.0,75,0.00,,,0.01,Wunderground v.1.13,2013-09-17 17:00:00,
2013-09-17 12:05:00,84.9,75.7,29.83,ENE,60,2.0,2.0,74,0.00,,,0.01,Wunderground v.1.13,2013-09-17 17:05:00,
2013-09-17 12:14:00,86.0,75.5,29.83,ENE,78,1.0,5.0,71,0.00,,,0.01,Wunderground v.1.13,2013-09-17 17:14:00,
2013-09-17 12:19:00,85.7,75.2,29.82,NE,53,2.0,2.0,71,0.00,,,0.01,Wunderground v.1.13,2013-09-17 17:19:00,
2013-09-17 12:24:00,85.7,75.6,29.82,NE,54,2.0,2.0,72,0.00,,,0.01,Wunderground v.1.13,2013-09-17 17:24:00,
2013-09-17 12:30:00,85.5,75.4,29.82,NE,56,1.0,2.0,72,0.00,,,0.01,Wunderground v.1.13,2013-09-17 17:30:00,
2013-09-17 12:35:00,85.0,75.4,29.82,ENE,57,2.0,2.0,73,0.00,,,0.01,Wunderground v.1.13,2013-09-17 17:35:00,
2013-09-17 12:40:00,84.8,75.2,29.82,ENE,64,2.0,2.0,73,0.00,,,0.01,Wunderground v.1.13,2013-09-17 17:40:00,
2013-09-17 12:45:00,84.7,75.1,29.82,ENE,58,1.0,1.0,73,0.00,,,0.01,Wunderground v.1.13,2013-09-17 17:45:00,
2013-09-17 12:50:00,84.9,75.3,29.82,ENE,57,1.0,1.0,73,0.00,,,0.01,Wunderground v.1.13,2013-09-17 17:50:00,
2013-09-17 12:55:00,85.1,74.6,29.82,ENE,65,1.0,3.0,71,0.00,,,0.01,Wunderground v.1.13,2013-09-17 17:55:00,
2013-09-17 13:04:00,86.3,74.9,29.81,ENE,64,1.0,1.0,69,0.00,,,0.01,Wunderground v.1.13,2013-09-17 18:04:00,
2013-09-17 13:14:00,85.8,74.4,29.81,ENE,60,1.0,1.0,69,0.00,,,0.01,Wunderground v.1.13,2013-09-17 18:14:00,
2013-09-17 13:19:00,85.7,76.5,29.81,ENE,60,0.0,0.0,74,0.00,,,0.01,Wunderground v.1.13,2013-09-17 18:19:00,
2013-09-17 13:24:00,85.9,77.5,29.80,ENE,60,0.0,3.0,76,0.00,,,0.01,Wunderground v.1.13,2013-09-17 18:24:00,
2013-09-17 13:30:00,85.7,75.6,29.80,ENE,59,1.0,5.0,72,0.00,,,0.01,Wunderground v.1.13,2013-09-17 18:30:00,
2013-09-17 13:35:00,85.9,75.4,29.80,ENE,60,2.0,2.0,71,0.00,,,0.01,Wunderground v.1.13,2013-09-17 18:35:00,
2013-09-17 13:40:00,86.6,74.8,29.79,ENE,60,1.0,1.0,68,0.00,,,0.01,Wunderground v.1.13,2013-09-17 18:40:00,
2013-09-17 13:49:00,88.6,73.9,29.79,NE,55,1.0,1.0,62,0.00,,,0.01,Wunderground v.1.13,2013-09-17 18:49:00,
2013-09-17 13:54:00,88.7,73.5,29.78,NE,55,1.0,1.0,61,0.00,,,0.01,Wunderground v.1.13,2013-09-17 18:54:00,
2013-09-17 14:00:00,88.4,73.2,29.78,NE,55,0.0,0.0,61,0.00,,,0.01,Wunderground v.1.13,2013-09-17 19:00:00,
2013-09-17 14:05:00,88.9,74.2,29.78,NE,55,0.0,0.0,62,0.00,,,0.01,Wunderground v.1.13,2013-09-17 19:05:00,
2013-09-17 14:14:00,88.9,74.2,29.77,ENE,61,1.0,3.0,62,0.00,,,0.01,Wunderground v.1.13,2013-09-17 19:14:00,
2013-09-17 14:19:00,90.7,73.9,29.77,ENE,63,1.0,1.0,58,0.00,,,0.01,Wunderground v.1.13,2013-09-17 19:19:00,
2013-09-17 14:24:00,90.5,73.7,29.76,ENE,67,1.0,1.0,58,0.00,,,0.01,Wunderground v.1.13,2013-09-17 19:24:00,
2013-09-17 14:30:00,90.2,73.4,29.76,ENE,67,0.0,0.0,58,0.00,,,0.01,Wunderground v.1.13,2013-09-17 19:30:00,
2013-09-17 14:35:00,90.2,72.9,29.76,ENE,61,1.0,3.0,57,0.00,,,0.01,Wunderground v.1.13,2013-09-17 19:35:00,
2013-09-17 14:40:00,90.1,73.8,29.75,ENE,62,2.0,2.0,59,0.00,,,0.01,Wunderground v.1.13,2013-09-17 19:40:00,
2013-09-17 14:45:00,91.8,74.4,29.75,ENE,63,2.0,2.0,57,0.00,,,0.01,Wunderground v.1.13,2013-09-17 19:45:00,
2013-09-17 14:50:00,91.7,73.2,29.75,ENE,63,1.0,1.0,55,0.00,,,0.01,Wunderground v.1.13,2013-09-17 19:50:00,
2013-09-17 14:55:00,91.1,73.2,29.75,ENE,63,0.0,0.0,56,0.00,,,0.01,Wunderground v.1.13,2013-09-17 19:55:00,
2013-09-17 15:00:00,90.3,72.5,29.74,ENE,63,0.0,1.0,56,0.00,,,0.01,Wunderground v.1.13,2013-09-17 20:00:00,
2013-09-17 15:09:00,89.7,71.9,29.74,ENE,74,0.0,0.0,56,0.00,,,0.01,Wunderground v.1.13,2013-09-17 20:09:00,
2013-09-17 15:15:00,89.4,72.2,29.74,ENE,74,0.0,7.0,57,0.00,,,0.01,Wunderground v.1.13,2013-09-17 20:15:00,
2013-09-17 15:20:00,89.3,72.1,29.74,ENE,63,1.0,1.0,57,0.00,,,0.01,Wunderground v.1.13,2013-09-17 20:20:00,
2013-09-17 15:25:00,89.5,71.7,29.74,ENE,62,1.0,2.0,56,0.00,,,0.01,Wunderground v.1.13,2013-09-17 20:25:00,
2013-09-17 15:30:00,89.5,71.2,29.74,ENE,63,1.0,1.0,55,0.00,,,0.01,Wunderground v.1.13,2013-09-17 20:30:00,
2013-09-17 15:39:00,89.5,71.2,29.74,ENE,62,1.0,4.0,55,0.00,,,0.01,Wunderground v.1.13,2013-09-17 20:39:00,
2013-09-17 15:44:00,89.3,71.0,29.74,ENE,62,0.0,0.0,55,0.00,,,0.01,Wunderground v.1.13,2013-09-17 20:44:00,
2013-09-17 15:49:00,89.4,70.6,29.73,ENE,63,0.0,1.0,54,0.00,,,0.01,Wunderground v.1.13,2013-09-17 20:49:00,
2013-09-17 15:54:00,89.5,70.1,29.73,ENE,63,0.0,0.0,53,0.00,,,0.01,Wunderground v.1.13,2013-09-17 20:54:00,
2013-09-17 16:00:00,90.3,70.3,29.73,ENE,63,0.0,0.0,52,0.00,,,0.01,Wunderground v.1.13,2013-09-17 21:00:00,
2013-09-17 16:05:00,90.4,70.9,29.73,ENE,63,0.0,0.0,53,0.00,,,0.01,Wunderground v.1.13,2013-09-17 21:05:00,
2013-09-17 16:14:00,90.4,70.9,29.73,ENE,64,0.0,0.0,53,0.00,,,0.01,Wunderground v.1.13,2013-09-17 21:14:00,
2013-09-17 16:25:00,89.8,70.9,29.73,ENE,68,2.0,8.0,54,0.00,,,0.01,Wunderground v.1.13,2013-09-17 21:25:00,
2013-09-17 16:30:00,89.2,70.9,29.73,ENE,72,1.0,2.0,55,0.00,,,0.01,Wunderground v.1.13,2013-09-17 21:30:00,
2013-09-17 16:39:00,88.9,71.2,29.72,ENE,60,1.0,4.0,56,0.00,,,0.01,Wunderground v.1.13,2013-09-17 21:39:00,
2013-09-17 16:44:00,88.8,71.6,29.72,ENE,61,1.0,1.0,57,0.00,,,0.01,Wunderground v.1.13,2013-09-17 21:44:00,
2013-09-17 16:50:00,89.1,71.4,29.72,ENE,67,1.0,4.0,56,0.00,,,0.01,Wunderground v.1.13,2013-09-17 21:50:00,
2013-09-17 16:55:00,88.4,72.2,29.72,ENE,74,2.0,2.0,59,0.00,,,0.01,Wunderground v.1.13,2013-09-17 21:55:00,
2013-09-17 17:04:00,88.5,72.3,29.73,ESE,105,2.0,2.0,59,0.00,,,0.01,Wunderground v.1.13,2013-09-17 22:04:00,
2013-09-17 17:09:00,87.0,71.9,29.73,ENE,60,2.0,2.0,61,0.00,,,0.01,Wunderground v.1.13,2013-09-17 22:09:00,
2013-09-17 17:14:00,87.1,71.5,29.73,East,83,2.0,2.0,60,0.00,,,0.01,Wunderground v.1.13,2013-09-17 22:14:00,
2013-09-17 17:19:00,86.7,72.1,29.72,ENE,65,2.0,2.0,62,0.00,,,0.01,Wunderground v.1.13,2013-09-17 22:19:00,
2013-09-17 17:25:00,87.2,71.6,29.72,ENE,69,1.0,1.0,60,0.00,,,0.01,Wunderground v.1.13,2013-09-17 22:25:00,
2013-09-17 17:30:00,87.2,70.1,29.72,East,86,1.0,1.0,57,0.00,,,0.01,Wunderground v.1.13,2013-09-17 22:30:00,
2013-09-17 17:35:00,87.4,68.7,29.72,ENE,58,1.0,1.0,54,0.00,,,0.01,Wunderground v.1.13,2013-09-17 22:35:00,
2013-09-17 17:40:00,87.3,69.7,29.72,ENE,61,1.0,1.0,56,0.00,,,0.01,Wunderground v.1.13,2013-09-17 22:40:00,
2013-09-17 17:45:00,86.8,70.2,29.72,ENE,63,1.0,1.0,58,0.00,,,0.01,Wunderground v.1.13,2013-09-17 22:45:00,
2013-09-17 17:54:00,85.0,70.0,29.72,ENE,66,2.0,2.0,61,0.00,,,0.01,Wunderground v.1.13,2013-09-17 22:54:00,
2013-09-17 17:59:00,84.5,70.5,29.72,ENE,67,1.0,1.0,63,0.00,,,0.01,Wunderground v.1.13,2013-09-17 22:59:00,
2013-09-17 18:05:00,84.2,70.7,29.72,ENE,67,0.0,0.0,64,0.00,,,0.01,Wunderground v.1.13,2013-09-17 23:05:00,
2013-09-17 18:15:00,84.1,71.1,29.72,ENE,67,0.0,0.0,65,0.00,,,0.01,Wunderground v.1.13,2013-09-17 23:15:00,
2013-09-17 18:24:00,84.1,71.1,29.73,ENE,67,0.0,0.0,65,0.00,,,0.01,Wunderground v.1.13,2013-09-17 23:24:00,
2013-09-17 18:29:00,84.1,71.1,29.73,ENE,67,0.0,0.0,65,0.00,,,0.01,Wunderground v.1.13,2013-09-17 23:29:00,
2013-09-17 18:39:00,83.7,71.1,29.73,ENE,67,0.0,0.0,66,0.00,,,0.01,Wunderground v.1.13,2013-09-17 23:39:00,
2013-09-17 18:44:00,83.6,71.0,29.73,ENE,67,0.0,2.0,66,0.00,,,0.01,Wunderground v.1.13,2013-09-17 23:44:00,
2013-09-17 18:49:00,83.4,71.3,29.73,ENE,67,0.0,0.0,67,0.00,,,0.01,Wunderground v.1.13,2013-09-17 23:49:00,
2013-09-17 18:54:00,83.2,71.5,29.73,ENE,67,0.0,0.0,68,0.00,,,0.01,Wunderground v.1.13,2013-09-17 23:54:00,
2013-09-17 19:00:00,83.1,71.4,29.74,ENE,67,0.0,0.0,68,0.00,,,0.01,Wunderground v.1.13,2013-09-18 00:00:00,
2013-09-17 19:05:00,82.9,71.3,29.74,ENE,67,0.0,0.0,68,0.00,,,0.01,Wunderground v.1.13,2013-09-18 00:05:00,
2013-09-17 19:10:00,82.8,71.6,29.74,ENE,67,0.0,0.0,69,0.00,,,0.01,Wunderground v.1.13,2013-09-18 00:10:00,
2013-09-17 19:15:00,82.8,71.6,29.74,ENE,67,0.0,0.0,69,0.00,,,0.01,Wunderground v.1.13,2013-09-18 00:15:00,
2013-09-17 19:24:00,82.5,71.3,29.74,ENE,67,0.0,0.0,69,0.00,,,0.01,Wunderground v.1.13,2013-09-18 00:24:00,
2013-09-17 19:34:00,82.3,71.5,29.74,ENE,67,0.0,0.0,70,0.00,,,0.01,Wunderground v.1.13,2013-09-18 00:34:00,
2013-09-17 19:39:00,82.2,71.4,29.74,ENE,67,0.0,0.0,70,0.00,,,0.01,Wunderground v.1.13,2013-09-18 00:39:00,
2013-09-17 19:44:00,81.9,71.6,29.74,ENE,67,0.0,0.0,71,0.00,,,0.01,Wunderground v.1.13,2013-09-18 00:44:00,
2013-09-17 19:49:00,81.7,71.8,29.74,ENE,67,0.0,0.0,72,0.00,,,0.01,Wunderground v.1.13,2013-09-18 00:49:00,
2013-09-17 19:55:00,81.5,71.6,29.74,ENE,67,0.0,0.0,72,0.00,,,0.01,Wunderground v.1.13,2013-09-18 00:55:00,
2013-09-17 20:00:00,81.4,71.5,29.74,ENE,67,0.0,0.0,72,0.00,,,0.01,Wunderground v.1.13,2013-09-18 01:00:00,
2013-09-17 20:05:00,81.3,71.4,29.74,ENE,67,0.0,0.0,72,0.00,,,0.01,Wunderground v.1.13,2013-09-18 01:05:00,
2013-09-17 20:14:00,80.9,71.0,29.74,ENE,67,0.0,0.0,72,0.00,,,0.01,Wunderground v.1.13,2013-09-18 01:14:00,
2013-09-17 20:19:00,80.7,71.2,29.74,ENE,67,0.0,0.0,73,0.00,,,0.01,Wunderground v.1.13,2013-09-18 01:19:00,
2013-09-17 20:24:00,80.5,71.0,29.74,ENE,67,0.0,0.0,73,0.00,,,0.01,Wunderground v.1.13,2013-09-18 01:24:00,
2013-09-17 20:30:00,80.3,71.3,29.75,ENE,67,0.0,0.0,74,0.00,,,0.01,Wunderground v.1.13,2013-09-18 01:30:00,
2013-09-17 20:35:00,80.2,71.2,29.75,ENE,67,0.0,0.0,74,0.00,,,0.01,Wunderground v.1.13,2013-09-18 01:35:00,
2013-09-17 20:40:00,80.0,71.4,29.75,ENE,67,0.0,0.0,75,0.00,,,0.01,Wunderground v.1.13,2013-09-18 01:40:00,
2013-09-17 20:45:00,79.8,71.2,29.75,ENE,67,0.0,0.0,75,0.00,,,0.01,Wunderground v.1.13,2013-09-18 01:45:00,
2013-09-17 20:50:00,79.6,71.0,29.75,ENE,67,0.0,0.0,75,0.00,,,0.01,Wunderground v.1.13,2013-09-18 01:50:00,
2013-09-17 20:55:00,79.4,70.8,29.75,ENE,67,0.0,0.0,75,0.00,,,0.01,Wunderground v.1.13,2013-09-18 01:55:00,
2013-09-17 21:04:00,79.1,70.9,29.76,ENE,67,0.0,0.0,76,0.00,,,0.01,Wunderground v.1.13,2013-09-18 02:04:00,
2013-09-17 21:09:00,78.9,71.1,29.75,ENE,67,0.0,0.0,77,0.00,,,0.01,Wunderground v.1.13,2013-09-18 02:09:00,
2013-09-17 21:15:00,78.7,70.9,29.76,ENE,67,0.0,0.0,77,0.00,,,0.01,Wunderground v.1.13,2013-09-18 02:15:00,
2013-09-17 21:20:00,78.6,70.8,29.77,ENE,67,0.0,0.0,77,0.00,,,0.01,Wunderground v.1.13,2013-09-18 02:20:00,
2013-09-17 21:25:00,78.5,71.1,29.77,ENE,67,0.0,0.0,78,0.00,,,0.01,Wunderground v.1.13,2013-09-18 02:25:00,
2013-09-17 21:34:00,78.2,71.2,29.77,ENE,67,0.0,0.0,79,0.00,,,0.01,Wunderground v.1.13,2013-09-18 02:34:00,
2013-09-17 21:39:00,78.0,71.0,29.77,ENE,67,0.0,0.0,79,0.00,,,0.01,Wunderground v.1.13,2013-09-18 02:39:00,
2013-09-17 21:45:00,77.8,70.8,29.77,ENE,67,0.0,0.0,79,0.00,,,0.01,Wunderground v.1.13,2013-09-18 02:45:00,
2013-09-17 21:50:00,77.7,71.0,29.78,ENE,67,0.0,0.0,80,0.00,,,0.01,Wunderground v.1.13,2013-09-18 02:50:00,
2013-09-17 21:55:00,77.5,70.8,29.78,ENE,67,0.0,0.0,80,0.00,,,0.01,Wunderground v.1.13,2013-09-18 02:55:00,
2013-09-17 22:00:00,77.4,70.7,29.78,ENE,67,0.0,0.0,80,0.00,,,0.01,Wunderground v.1.13,2013-09-18 03:00:00,
2013-09-17 22:05:00,77.3,70.6,29.78,ENE,67,0.0,0.0,80,0.00,,,0.01,Wunderground v.1.13,2013-09-18 03:05:00,
2013-09-17 22:15:00,77.0,70.7,29.78,ENE,67,0.0,0.0,81,0.00,,,0.01,Wunderground v.1.13,2013-09-18 03:15:00,
2013-09-17 22:20:00,76.9,70.6,29.78,ENE,67,0.0,0.0,81,0.00,,,0.01,Wunderground v.1.13,2013-09-18 03:20:00,
2013-09-17 22:25:00,76.8,70.9,29.78,ENE,67,0.0,0.0,82,0.00,,,0.01,Wunderground v.1.13,2013-09-18 03:25:00,
2013-09-17 22:34:00,76.6,70.7,29.78,ENE,67,0.0,0.0,82,0.00,,,0.01,Wunderground v.1.13,2013-09-18 03:34:00,
2013-09-17 22:39:00,76.5,70.9,29.78,ENE,67,0.0,0.0,83,0.00,,,0.01,Wunderground v.1.13,2013-09-18 03:39:00,
2013-09-17 22:44:00,76.4,70.9,29.79,ENE,67,0.0,0.0,83,0.00,,,0.01,Wunderground v.1.13,2013-09-18 03:44:00,
2013-09-17 22:50:00,76.4,71.2,29.78,ENE,67,0.0,0.0,84,0.00,,,0.01,Wunderground v.1.13,2013-09-18 03:50:00,
2013-09-17 22:55:00,76.3,71.1,29.79,ENE,67,0.0,0.0,84,0.00,,,0.01,Wunderground v.1.13,2013-09-18 03:55:00,
2013-09-17 23:00:00,76.1,70.9,29.79,ENE,67,0.0,0.0,84,0.00,,,0.01,Wunderground v.1.13,2013-09-18 04:00:00,
2013-09-17 23:05:00,76.0,70.8,29.79,ENE,67,0.0,0.0,84,0.00,,,0.01,Wunderground v.1.13,2013-09-18 04:05:00,
2013-09-17 23:15:00,75.8,70.6,29.79,ENE,67,0.0,0.0,84,0.00,,,0.01,Wunderground v.1.13,2013-09-18 04:15:00,
2013-09-17 23:20:00,75.8,71.0,29.79,ENE,67,0.0,0.0,85,0.00,,,0.01,Wunderground v.1.13,2013-09-18 04:20:00,
2013-09-17 23:24:00,75.7,70.9,29.79,ENE,67,0.0,0.0,85,0.00,,,0.01,Wunderground v.1.13,2013-09-18 04:24:00,
2013-09-17 23:29:00,75.6,70.8,29.79,ENE,67,0.0,0.0,85,0.00,,,0.01,Wunderground v.1.13,2013-09-18 04:29:00,
2013-09-17 23:34:00,75.5,70.7,29.79,ENE,67,0.0,0.0,85,0.00,,,0.01,Wunderground v.1.13,2013-09-18 04:34:00,
2013-09-17 23:40:00,75.4,70.9,29.79,ENE,67,0.0,0.0,86,0.00,,,0.01,Wunderground v.1.13,2013-09-18 04:40:00,
2013-09-17 23:45:00,75.3,70.5,29.79,ENE,67,0.0,0.0,85,0.00,,,0.01,Wunderground v.1.13,2013-09-18 04:45:00,
2013-09-17 23:50:00,75.3,70.8,29.79,ENE,67,0.0,0.0,86,0.00,,,0.01,Wunderground v.1.13,2013-09-18 04:50:00,
2013-09-17 23:55:00,75.2,70.7,29.79,ENE,67,0.0,0.0,86,0.00,,,0.01,Wunderground v.1.13,2013-09-18 04:55:00,